Regional Weather Roundup
Issued by NWS

Home | Current Version | Previous Version | Text Only | Print | Product List | Glossary Off
Versions: 1 2 3 4 5 6 7 8 9 10 11 12 13 14 15 16 17 18 19 20 21 22 23 24 25 26 27 28 29 30 31 32 33 34 35 36 37 38 39 40 41 42 43 44 45 46 47 48 49 50

000
ASUS43 KLMK 171902
RWRKY
KENTUCKY REGIONAL WEATHER ROUNDUP
NATIONAL WEATHER SERVICE LOUISVILLE KY
300 PM EDT FRI APR 17 2015

NOTE "FAIR" INDICATES FEW OR NO CLOUDS BELOW 12,000 FEET
WITH NO SIGNIFICANT WEATHER AND/OR OBSTRUCTIONS TO VISIBILITY.

KYZ001>023-026-027-061>063-070>075-172000-
WESTERN AND SOUTH CENTRAL KENTUCKY

CITY           SKY/WX    TMP DP  RH WIND       PRES   REMARKS
PADUCAH        CLOUDY    74  62  66 SE7       30.05S
HENDERSON      CLOUDY    73  61  64 NE6       30.04F
OWENSBORO      CLOUDY    75  61  62 S8        30.06F
HOPKINSVILLE   CLOUDY    69  61  76 NE7       30.06F
BOWLING GREEN  CLOUDY    72  59  63 NE3       30.07F
GLASGOW        NOT AVBL
$$

KYZ024-025-028>034-038-045-046-053-172000-
NORTH CENTRAL KENTUCKY

CITY           SKY/WX    TMP DP  RH WIND       PRES   REMARKS
LOUISVILLE/SDF PTSUNNY   76  56  49 SE3       30.05F
LOUISVILLE/LOU PTSUNNY   74  58  57 CALM      30.06F
FORT KNOX      CLOUDY    73  58  58 SW2       30.05F
$$

KYZ035>037-039>044-047>052-055>060-089>105-172000-
NORTHEAST KENTUCKY

CITY           SKY/WX    TMP DP  RH WIND       PRES   REMARKS
LEXINGTON      PTSUNNY   70  59  68 SW5       30.07F
COVINGTON      PTSUNNY   72  50  45 NW6       30.07F
FRANKFORT      PTSUNNY   72  57  59 CALM      30.05F
$$

KYZ054-064>069-076>088-106>120-172000-
SOUTHEAST KENTUCKY

CITY           SKY/WX    TMP DP  RH WIND       PRES   REMARKS
JACKSON        CLOUDY    71  57  61 VRB3      30.08F
LONDON         MOSUNNY   72  54  53 VRB3      30.08F
SOMERSET       NOT AVBL
MIDDLESBORO    PTSUNNY   73  58  60 CALM      30.08F
MONTICELLO     MOCLDY    72  60  65 CALM      30.11F
$$



USA.gov is the U.S. government's official web portal to all federal, state and local government web resources and services.